SSU 2

Satellite information

Favourite Embed

Satellite Type and Status

PAYLOADIN ORBIT

Key statistics

Satellite SSU 2 at a glance.

Uptime

18026

Days in orbit

Revolutions

≈ 13.8

Per day

Orbit

LEO

Low Earth Orbit

Inclination

63.4

Latest

Satellite identification and parameters

Extended collection of information and parameters for SSU 2.

Object identification

Identified? True

Debris? False

Object name: SSU 2

International designator: 1976-038D

Object number (NORAD): 8836

Object ID (CCSDS): 8836

Country: UNITED STATES OF AMERICA (US)

Current information (Y/N): Y

RCS size: LARGE

Orbital parameters

Period: 104.138 minutes

Inclination: 63.36 deg

SMA: 7332.164 km

Apoapsis: 1256.192 km

Periapsis: 651.866 km

RAAN: 327.6425 deg

Eccentricy: 0.04121066

Argument of periapsis: 176.5034 deg

Mean anomaly: 183.9057 deg

Mean motion: 13.82784453 rev/day

Mean motion (dot): 0.00000442 rev/day2

B* drag term: 0.00026267543 1/REarth

Two-line elements (TLE)

Creation date: Sept. 6, 2025, 2:09 a.m.

Reference frame: TEME

Reference center: EARTH

Epoch: Sept. 5, 2025, 4 p.m. UTC

TLE line 0: 0 SSU 2

TLE line 1: 1 08836U 76038D 25248.66702212 .00000442 00000-0 26268-3 0 9993

TLE line 2: 2 08836 63.3600 327.6425 0412107 176.5034 183.9057 13.82784453311930

Live tracking on map

Real-time ground track for satellite SSU 2.

In-orbit conjunctions

A list of the most updated potential collisions computed for object SSU 2.

Target Orbit TCA Probability of collision Miss distance Type
NOAA 16 DEB SSO 2025-05-21 14:01:42 0.0002550251 676.0 (m) DEBRIS
NOAA 17 DEB SSO 2024-05-27 02:00:10 0.0003069898 407.0 (m) DEBRIS

Associated space launch

Parcae 1A, B and C were passive ELINT satellites. MSD 1 was a dispenser of triplets of ocean surveillance satellites.

SSU 2 was lifted into orbit during the mission ‘Atlas F/MSD | Parcae 1A,B,C & MSD 1’, on board a Atlas F/MSD space rocket.

The launch took place on April 30, 1976, 7:12 p.m. from Space Launch Complex 3W.

For more information about the launch, click the button.

Launch to space Atlas F/MSD | Parcae 1A,B,C & MSD 1
Atlas F/MSD | Parcae 1A,B,C & MSD 1

Agency: N/A

Status: Launch Successful

Launch date: April 30, 1976, 7:12 p.m. UTC

Rocket: Atlas F/MSD

Launch pad: Space Launch Complex 3W

Location: Vandenberg SFB, CA, USA

...

Latest news about this satellite

There are no fresh news available about this satellite. Check back as we update our databases every day.


Newsletter sign-up

Weekly statistics, charts and insights to help you stay on top of the space industry.